When you browse on this site, cookies collect data to enhance your experience and personalize the content and advertising you see.
Visit our Privacy Policy to learn more. By continuing to use the site, you agree to this use of cookies and data.
  • In Hungary
  • List of Countries
  • For 7 days
  • Water Temperature
  • Weather Map
  • News
  • Weather Widgets
  • user-avatar
    Login

    Hourly Weather Kovylnyy

    Today, 18 October, Friday

    Time Temperature Precipitation Wind Pressure Humidity
    00:00 +14°C° 0 mm 3 mps 760 mmHg 72%
    01:00 +13°C° 0 mm 3 mps 759 mmHg 74%
    02:00 +13°C° 0 mm 3 mps 759 mmHg 77%
    03:00 +13°C° 0 mm 2 mps 759 mmHg 83%
    04:00 +13°C° 0 mm 2 mps 759 mmHg 85%
    05:00 +12°C° 0 mm 2 mps 759 mmHg 87%
    06:00 +12°C° 0 mm 2 mps 759 mmHg 89%
    07:00 +12°C° 0 mm 3 mps 759 mmHg 86%
    08:00 +12°C° 0 mm 3 mps 759 mmHg 82%
    09:00 +13°C° 0 mm 3 mps 759 mmHg 79%
    10:00 +16°C° 0 mm 3 mps 759 mmHg 73%
    11:00 +17°C° 0 mm 3 mps 759 mmHg 66%
    12:00 +19°C° 0 mm 3 mps 759 mmHg 60%
    13:00 +20°C° 0 mm 2 mps 759 mmHg 57%
    14:00 +20°C° 0 mm 2 mps 758 mmHg 54%
    15:00 +21°C° 0 mm 2 mps 758 mmHg 51%
    16:00 +21°C° 0 mm 1 mps 758 mmHg 55%
    17:00 +20°C° 0 mm 1 mps 758 mmHg 58%
    18:00 +19°C° 0 mm 1 mps 758 mmHg 62%
    19:00 +19°C° 0 mm 1 mps 758 mmHg 64%
    20:00 +17°C° 0 mm 2 mps 758 mmHg 67%
    21:00 +17°C° 0 mm 2 mps 758 mmHg 69%
    22:00 +16°C° 0 mm 2 mps 758 mmHg 70%
    23:00 +16°C° 0 mm 2 mps 758 mmHg 72%

    Tomorrow, 19 October, Saturday

    Time Temperature Precipitation Wind Pressure Humidity
    00:00 +15°C° 0 mm 2 mps 759 mmHg 74%
    01:00 +15°C° 0 mm 2 mps 759 mmHg 74%
    02:00 +15°C° 0 mm 2 mps 759 mmHg 74%
    03:00 +14°C° 0 mm 2 mps 759 mmHg 74%
    04:00 +14°C° 0 mm 2 mps 759 mmHg 74%
    05:00 +14°C° 0 mm 2 mps 759 mmHg 75%
    06:00 +13°C° 0 mm 2 mps 759 mmHg 75%
    07:00 +14°C° 0 mm 2 mps 760 mmHg 71%
    08:00 +14°C° 0 mm 3 mps 760 mmHg 66%
    09:00 +16°C° 0 mm 3 mps 760 mmHg 62%
    10:00 +18°C° 0 mm 3 mps 760 mmHg 56%
    11:00 +19°C° 0 mm 3 mps 760 mmHg 50%
    12:00 +21°C° 0 mm 3 mps 761 mmHg 44%
    13:00 +22°C° 0 mm 3 mps 760 mmHg 42%
    14:00 +22°C° 0 mm 3 mps 760 mmHg 40%
    15:00 +24°C° 0 mm 2 mps 760 mmHg 38%
    16:00 +21°C° 0 mm 2 mps 760 mmHg 41%
    17:00 +20°C° 0 mm 2 mps 760 mmHg 45%
    18:00 +19°C° 0 mm 2 mps 760 mmHg 49%
    19:00 +18°C° 0 mm 2 mps 760 mmHg 51%
    20:00 +18°C° 0 mm 2 mps 761 mmHg 54%
    21:00 +17°C° 0 mm 3 mps 761 mmHg 56%
    22:00 +16°C° 0 mm 3 mps 761 mmHg 58%
    23:00 +16°C° 0 mm 3 mps 761 mmHg 59%

    Day after tomorrow, 20 October, Sunday

    Time Temperature Precipitation Wind Pressure Humidity
    00:00 +14°C° 0 mm 3 mps 761 mmHg 60%
    01:00 +14°C° 0 mm 3 mps 761 mmHg 62%
    02:00 +13°C° 0 mm 3 mps 762 mmHg 64%
    03:00 +13°C° 0 mm 3 mps 762 mmHg 66%
    04:00 +13°C° 0 mm 3 mps 762 mmHg 67%
    05:00 +12°C° 0 mm 3 mps 762 mmHg 68%
    06:00 +12°C° 0 mm 3 mps 762 mmHg 70%
    07:00 +13°C° 0 mm 3 mps 762 mmHg 66%
    08:00 +14°C° 0 mm 3 mps 763 mmHg 62%
    09:00 +15°C° 0 mm 4 mps 763 mmHg 59%
    10:00 +18°C° 0 mm 4 mps 763 mmHg 54%
    11:00 +19°C° 0 mm 4 mps 763 mmHg 48%
    12:00 +21°C° 0 mm 4 mps 763 mmHg 43%
    13:00 +22°C° 0 mm 4 mps 763 mmHg 42%
    14:00 +22°C° 0 mm 4 mps 762 mmHg 41%
    15:00 +23°C° 0 mm 4 mps 762 mmHg 39%
    16:00 +21°C° 0 mm 3 mps 762 mmHg 43%
    17:00 +20°C° 0 mm 3 mps 762 mmHg 47%
    18:00 +19°C° 0 mm 3 mps 762 mmHg 51%
    19:00 +18°C° 0 mm 3 mps 762 mmHg 52%
    20:00 +18°C° 0 mm 3 mps 763 mmHg 53%
    21:00 +17°C° 0 mm 3 mps 763 mmHg 54%
    22:00 +16°C° 0 mm 3 mps 763 mmHg 57%
    23:00 +16°C° 0 mm 3 mps 763 mmHg 60%

    21 October, Monday

    Time Temperature Precipitation Wind Pressure Humidity
    00:00 +14°C° 0 mm 3 mps 763 mmHg 62%
    01:00 +14°C° 0 mm 3 mps 763 mmHg 64%
    02:00 +13°C° 0 mm 3 mps 763 mmHg 66%
    03:00 +13°C° 0 mm 3 mps 763 mmHg 67%
    04:00 +12°C° 0 mm 3 mps 763 mmHg 68%
    05:00 +12°C° 0 mm 3 mps 763 mmHg 69%
    06:00 +12°C° 0 mm 3 mps 763 mmHg 70%
    07:00 +13°C° 0 mm 3 mps 763 mmHg 66%
    08:00 +13°C° 0 mm 3 mps 764 mmHg 63%
    09:00 +14°C° 0 mm 4 mps 764 mmHg 60%
    10:00 +17°C° 0 mm 4 mps 764 mmHg 55%
    11:00 +19°C° 0 mm 4 mps 764 mmHg 49%
    12:00 +21°C° 0 mm 4 mps 764 mmHg 44%
    13:00 +21°C° 0 mm 4 mps 763 mmHg 42%
    14:00 +21°C° 0 mm 4 mps 763 mmHg 40%
    15:00 +22°C° 0 mm 3 mps 763 mmHg 39%
    16:00 +21°C° 0 mm 3 mps 763 mmHg 42%
    17:00 +19°C° 0 mm 3 mps 763 mmHg 46%
    18:00 +18°C° 0 mm 3 mps 763 mmHg 50%
    19:00 +17°C° 0 mm 3 mps 763 mmHg 53%
    20:00 +17°C° 0 mm 3 mps 763 mmHg 56%
    21:00 +16°C° 0 mm 3 mps 763 mmHg 60%
    22:00 +14°C° 0 mm 3 mps 763 mmHg 62%
    23:00 +14°C° 0 mm 3 mps 763 mmHg 65%

    22 October, Tuesday

    Time Temperature Precipitation Wind Pressure Humidity
    00:00 +13°C° 0 mm 3 mps 763 mmHg 67%
    01:00 +14°C° 0 mm 2 mps 763 mmHg 69%
    02:00 +13°C° 0 mm 2 mps 763 mmHg 70%
    03:00 +13°C° 0 mm 2 mps 763 mmHg 71%
    04:00 +13°C° 0 mm 2 mps 763 mmHg 72%
    05:00 +12°C° 0 mm 2 mps 763 mmHg 72%
    06:00 +12°C° 0 mm 2 mps 763 mmHg 73%
    07:00 +12°C° 0 mm 3 mps 763 mmHg 70%
    08:00 +12°C° 0 mm 3 mps 763 mmHg 66%
    09:00 +13°C° 0 mm 3 mps 763 mmHg 62%
    10:00 +16°C° 0 mm 3 mps 763 mmHg 56%
    11:00 +17°C° 0 mm 3 mps 763 mmHg 50%
    12:00 +19°C° 0 mm 3 mps 762 mmHg 45%
    13:00 +20°C° 0 mm 3 mps 762 mmHg 42%
    14:00 +20°C° 0 mm 2 mps 762 mmHg 40%
    15:00 +21°C° 0 mm 2 mps 761 mmHg 37%
    16:00 +20°C° 0 mm 2 mps 761 mmHg 41%
    17:00 +19°C° 0 mm 1 mps 761 mmHg 44%
    18:00 +18°C° 0 mm 1 mps 761 mmHg 47%
    19:00 +18°C° 0 mm 1 mps 761 mmHg 49%
    20:00 +16°C° 0 mm 1 mps 761 mmHg 51%
    21:00 +15°C° 0 mm 1 mps 761 mmHg 54%
    22:00 +15°C° 0 mm 1 mps 760 mmHg 56%
    23:00 +14°C° 0 mm 1 mps 760 mmHg 58%

    23 October, Wednesday

    Time Temperature Precipitation Wind Pressure Humidity
    00:00 +14°C° 0 mm 1 mps 760 mmHg 61%
    01:00 +14°C° 0 mm 1 mps 760 mmHg 62%
    02:00 +13°C° 0 mm 1 mps 760 mmHg 64%
    03:00 +12°C° 0 mm 0 mps 760 mmHg 65%
    04:00 +12°C° 0 mm 0 mps 760 mmHg 65%
    05:00 +12°C° 0 mm 0 mps 760 mmHg 66%
    06:00 +12°C° 0 mm 0 mps 760 mmHg 66%
    07:00 +13°C° 0 mm 0 mps 760 mmHg 62%
    08:00 +14°C° 0 mm 0 mps 760 mmHg 59%
    09:00 +15°C° 0 mm 1 mps 760 mmHg 55%
    10:00 +18°C° 0 mm 1 mps 761 mmHg 51%
    11:00 +19°C° 0 mm 1 mps 761 mmHg 47%
    12:00 +21°C° 0 mm 1 mps 761 mmHg 43%
    13:00 +21°C° 0 mm 1 mps 761 mmHg 42%
    14:00 +22°C° 0 mm 1 mps 760 mmHg 42%
    15:00 +22°C° 0 mm 1 mps 760 mmHg 42%
    16:00 +21°C° 0 mm 1 mps 760 mmHg 45%
    17:00 +19°C° 0 mm 1 mps 760 mmHg 49%
    18:00 +18°C° 0 mm 1 mps 760 mmHg 53%
    19:00 +18°C° 0 mm 1 mps 760 mmHg 55%
    20:00 +16°C° 0 mm 1 mps 761 mmHg 56%
    21:00 +15°C° 0 mm 0 mps 761 mmHg 58%
    22:00 +15°C° 0 mm 1 mps 761 mmHg 59%
    23:00 +15°C° 0 mm 1 mps 761 mmHg 60%
    Show more